Flag for Germany Weather past 2 weeks in Leipzig, Saxony, Germany

Now
59 °F

Scattered clouds.


Feels Like: 57 °F
Forecast: 44 / 60 °F
Wind: 9 mph from Northwest

Location: Leipzig-Schkeuditz

Current Time: Sep 23, 2014 at 3:21:54 PM

Latest Report: Sep 23, 2014 at 2:50 PM


Visibility: N/A

Pressure: 30.12 "Hg

Humidity: 55%

Dew point: 43 °F

Location of LeipzigLocation

Historic Weather in Leipzig — Graph

°F

Leipzig temperature yesterday

Maximum temperature yesterday: 55 °F (at 9:50 AM)
Minimum temperature yesterday: 50 °F (at 6:50 PM)
Average temperature yesterday: 53 °F

Past Weeks' High & Low Weather Summary

 TemperatureHumidityPressure
High75 °F (Sep 16, 3:20 PM)100% (Sep 9, 6:20 AM)30.15 "Hg (Sep 9, 6:20 AM)
Low50 °F (Sep 9, 6:20 AM)44% (Sep 17, 4:50 PM)29.89 "Hg (Sep 19, 3:50 PM)
Average61 °F87%30.01 "Hg
* Reported Sep 8 1:20 PM — Sep 23 1:50 PM, Leipzig, Weather by CustomWeather, © 2014

Note: Actual official high and low records may vary slightly from our data, if they occured in-between our weather recording intervals... More about our weather records

Advertising

Leipzig weather history for previous 24 hours

 ConditionsComfort  
Time TempWeatherWind HumidityBarometerVisibility
1:50 PM
Sep 23
55 °FScattered clouds.9 mph59%30.12 "HgN/A
1:20 PM57 °FScattered clouds.10 mph63%30.12 "HgN/A
12:50 PM55 °FScattered clouds.10 mph67%30.12 "HgN/A
12:20 PM55 °FBroken clouds.13 mph67%30.12 "HgN/A
11:50 AM54 °FBroken clouds.13 mph72%30.12 "HgN/A
11:20 AM54 °FPartly sunny.12 mph77%30.12 "HgN/A
10:50 AM52 °FPartly sunny.12 mph82%30.12 "HgN/A
10:20 AM52 °FPartly sunny.12 mph82%30.12 "HgN/A
9:50 AM50 °FPartly sunny.12 mph82%30.12 "HgN/A
9:20 AM50 °FLow clouds.12 mph88%30.09 "HgN/A
8:50 AM50 °FLow clouds.12 mph88%30.09 "HgN/A
8:20 AM50 °FLow clouds.12 mph88%30.09 "HgN/A
7:50 AM50 °FLow clouds.10 mph88%30.09 "HgN/A
7:20 AM50 °FPassing clouds.10 mph88%30.09 "HgN/A
6:50 AM50 °FPassing clouds.8 mph88%30.07 "HgN/A
6:20 AM50 °FMostly cloudy.9 mph88%30.07 "HgN/A
5:50 AM50 °FMostly cloudy.8 mph88%30.07 "HgN/A
5:20 AM50 °FOvercast.10 mph88%30.04 "HgN/A
4:50 AM50 °FOvercast.10 mph88%30.04 "HgN/A
4:20 AM50 °FOvercast.13 mph88%30.04 "HgN/A
3:50 AM50 °FOvercast.13 mph88%30.04 "HgN/A
3:20 AM50 °FOvercast.13 mph88%30.04 "HgN/A
2:50 AM50 °FLight rain. Mostly cloudy.12 mph94%30.04 "HgN/A
2:20 AM50 °FOvercast.13 mph94%30.04 "HgN/A
1:50 AM50 °FLight rain. Mostly cloudy.9 mph94%30.04 "HgN/A
1:20 AM50 °FLight rain. Mostly cloudy.10 mph100%30.04 "HgN/A
12:50 AM50 °FLight rain. Mostly cloudy.10 mph94%30.01 "HgN/A
12:20 AM50 °FLight rain. Passing clouds.13 mph94%30.01 "HgN/A
11:50 PM
Sep 22
50 °FLight rain. Passing clouds.10 mph94%30.01 "HgN/A
11:20 PM50 °FLight rain. Passing clouds.13 mph94%30.01 "HgN/A
10:50 PM50 °FPassing clouds.10 mph88%30.01 "HgN/A
10:20 PM50 °FLight rain. Overcast.13 mph94%29.98 "HgN/A
9:50 PM50 °FLight rain. Overcast.15 mph88%29.98 "HgN/A
9:20 PM50 °FLight rain. Overcast.13 mph88%29.98 "HgN/A
8:50 PM50 °FLight rain. Mostly cloudy.13 mph88%29.98 "HgN/A
8:20 PM50 °FLight rain. Mostly cloudy.10 mph88%29.98 "HgN/A
7:50 PM50 °FLight rain. Mostly cloudy.10 mph88%29.98 "HgN/A
7:20 PM50 °FLight rain. More clouds than sun.12 mph88%29.98 "HgN/A
6:50 PM50 °FLight rain. More clouds than sun.20 mph82%29.95 "HgN/A
6:20 PM54 °FSprinkles. Partly sunny.15 mph67%29.95 "HgN/A
5:50 PM54 °FSprinkles. Broken clouds.9 mph82%29.92 "HgN/A
5:20 PM54 °FPartly sunny.10 mph77%29.92 "HgN/A
4:50 PM52 °FPartly sunny.9 mph77%29.92 "HgN/A
4:20 PM52 °FPartly sunny.13 mph72%29.92 "HgN/A
3:50 PM52 °FSprinkles. Scattered clouds.16 mph72%29.92 "HgN/A
3:20 PM52 °FSprinkles. Scattered clouds.18 mph72%29.92 "HgN/A
Weather by CustomWeather, © 2014

See weather overviewHow to use our weather pages